Location: Dreilärchen
(47.9312°N, 8.6113°E)
Time: 02:16:02
(UTC+00:00)

Cosmos 1656 Rocket - Pass Details

Date: 26 May 2022
Orbit: 796 x 845 km, 71.1° (Epoch: 26 June)

Event Time Altitude Azimuth Distance (km) Brightness Sun altitude
Rises 02:00:20 0° 333° (NNW) 3,314 7.2 -12.4°
Reaches altitude 10° 02:02:46 10° 335° (NNW) 2,379 6.4 -12.2°
Maximum altitude 02:08:12 76° 62° (ENE) 825 3.8 -11.6°
Drops below altitude 10° 02:13:37 10° 148° (SSE) 2,369 5.9 -11.1°
Sets 02:16:01 0° 150° (SSE) 3,300 6.6 -10.8°
